ONEWEB-0314, 49100

Orbit data source: Space-Track

ONEWEB-0314, 49100 is a payload satellite owned by One Web (NAA) (UK) in LEO that was launched on Sat, 21 Aug 2021 UTC via a SOYUZ-2-1B launch vehicle from the Tyuratam Missile And Space Complex (TTMTR). Payload-class satellites include a variety of spacecraft equipped with specific instruments for various scientific and technological missions. These include communications satellites like Starlink; space stations such as the ISS; scientific satellites like the Hubble; Earth observation satellites from companies like Planet Labs, Umbra, and HawkEye 360; GPS; miniature CubeSats for education and research; and military/defense satellites.

Loading next visibility...
Identifier
49100, 2021-075AB
Orbit
LEO
Country
Flag of UKUK
Related business
Manufacturer
One Web
Mission
Operational Commercial Communications
Bus & Motor
ARROW, Unknown motor
Mass
148 kg wet, ~140 kg dry
Launch date (UTC)
2021-08-21 (5 years ago)
Launch vehicle
SOYUZ-2-1B
Launch site
Tyuratam Missile And Space Complex (TTMTR)
Object type
Payload
Rocket body
Debris
Shape & HBR
Trap Box + 2 Pan, 6.7 m
Radar Cross Section
3.464 m², Large (>1 m²)

Expand to show TLE details & history
Last TLE update: 9 hours ago

TLE from 9 hours ago
0 ONEWEB-0314
1 49100U 21075AB  26130.19013586  .00000085  00000-0  18705-3 0  9991
2 49100  87.9179  13.4020 0001582  93.3266 266.8047 13.17648077228562
Epoch: 2026-05-10T04:33Z
TLE epoch observation values (Epoch: 2026-05-10T04:33:47.738Z)
Latitude
0.00004°
Longitude
76.95632°
Altitude
1,196.682 km
Speed
7.255 km/s
True Right ascension
00h 53m 36s
True Declination
0° 00' 00"
Sunlit
Object was in daylight at epoch
Visualization orbit readout
Latitude
Unknown
Longitude
Unknown
Altitude
Unknown
Speed
Unknown
Apparent Right ascension
Unknown
Apparent Declination
Unknown
Sunlit
N/A
Visualization observer readout
Local Sidereal Time
22:05:19
Azimuth
Unknown
Elevation
Unknown
Doppler factor
Unknown
Orbital elements
Apogee altitude
1,192.023 km
Perigee altitude
1,189.628 km
Semi-major axis
7,568.963 km
Eccentricity
0.00016
Inclination
87.9179°
RAAN
13.402°
Arg. of periapsis
93.3266°
True anomaly
266.7866°
Mean anomaly
266.8047°
Eccentric anomaly
266.79565°
Mean motion
3.29601 °/min
Orbital period
109.22 mins
BSTAR
0.00018705
Loading maneuver chart data...
Computing Atmospheric mass density...
Loading historical data...
Loading historical data...
Loading historical data...
Loading historical data...
Loading historical data...
Loading historical data...
Loading historical data...

Documentation

Showing up to 5 results
|